Location: Dos Palmas
(32.4468°N, 116.8732°W)
Time: 23:53:32
(UTC+00:00)

FALCON 9 DEB - Pass Details

Date: 20 June 2021
Orbit: 363 x 377 km, 53.0° (Epoch: 01 August)

Event Time Altitude Azimuth Distance (km) Brightness Sun altitude
Rises 03:49:05 0° 216° (SW) 2,230 6.7 -10.0°
Reaches altitude 10° 03:51:08 10° 212° (SSW) 1,385 5.6 -10.4°
Maximum altitude 03:54:11 61° 132° (SE) 437 2.8 -10.9°
Drops below altitude 10° 03:57:17 10° 51° (NE) 1,401 5.6 -11.4°
Sets 03:59:21 0° 47° (NE) 2,259 6.7 -11.7°
